Chatham, MA

7:29 AM EDT on August 18, 2017 (GMT -0400)
Chatham Municipal

Weather History for KCQX - April, 2014

Change the Weather History Date:

Wednesday, April 30, 2014

  Actual Average Record
Temperature  
Mean Temperature 42 °F -  
Max Temperature 45 °F 55 °F 66 °F (2017)
Min Temperature 41 °F 41 °F 34 °F (1999)
Degree Days  
Heating Degree Days 22    
Moisture  
Dew Point 39 °F    
Average Humidity 87    
Maximum Humidity 97    
Minimum Humidity 73    
Precipitation  
Precipitation 0.13 in - - ()
Sea Level Pressure  
Sea Level Pressure 30.41 in    
Wind  
Wind Speed 12 mph (East)    
Max Wind Speed 16 mph    
Max Gust Speed 24 mph    
Visibility 8 miles    
Events Rain    
Averages and records for this station are not official NWS values.
T = Trace of Precipitation, MM = Missing Value Source: NWS Daily Summary

Daily Weather History Graph

Daily Weather History Graph

Search for Another Location

Airport or City:

Trip Planner

Search our weather history database for the weather conditions in past years. The results will help you decide how hot, cold, wet, or windy it might be!

Date:

Astronomy

Apr. 30, 2014 Rise Set
Actual Time 5:37 AM EDT 7:37 PM EDT
Civil Twilight 5:07 AM EDT 8:07 PM EDT
Nautical Twilight 4:31 AM EDT 8:44 PM EDT
Astronomical Twilight 3:51 AM EDT 9:24 PM EDT
Moon 6:36 AM EDT (4/30) 9:13 PM EDT (4/30)
Length of Visible Light 14h 59m
Length of Day
13h 59m
New Moon, 2% of the Moon is Illuminated
Apr 30
New Moon
May 6
First Quarter
May 14
Full
May 21
Last Quarter
May 28
New

Hourly Weather History & Observations

Time (EDT) Temp. Windchill Dew Point Humidity Pressure Visibility Wind Dir Wind Speed Gust Speed Precip Events Conditions
12:52 AM 42.1 °F 35.7 °F 34.0 °F 73% 30.52 in 10.0 mi East 11.5 mph - N/A   Mostly Cloudy
1:52 AM 42.1 °F 36.6 °F 35.1 °F 76% 30.52 in 10.0 mi East 9.2 mph - N/A   Overcast
2:52 AM 42.1 °F 35.7 °F 35.1 °F 76% 30.51 in 10.0 mi ENE 11.5 mph - N/A   Overcast
3:52 AM 41.0 °F 34.7 °F 36.0 °F 82% 30.51 in 9.0 mi ENE 10.4 mph - 0.01 in Rain Light Rain
4:52 AM 42.1 °F 34.9 °F 37.0 °F 82% 30.50 in 10.0 mi ENE 13.8 mph - 0.00 in   Mostly Cloudy
5:52 AM 42.1 °F 35.7 °F 37.0 °F 82% 30.52 in 10.0 mi ENE 11.5 mph - 0.00 in   Overcast
6:52 AM 42.1 °F 35.7 °F 36.0 °F 79% 30.53 in 10.0 mi ENE 11.5 mph - N/A   Overcast
7:52 AM 43.0 °F 36.8 °F 37.0 °F 80% 30.52 in 10.0 mi ENE 11.5 mph - N/A   Overcast
8:52 AM 42.1 °F 34.5 °F 37.0 °F 82% 30.51 in 10.0 mi East 15.0 mph - N/A   Overcast
9:52 AM 42.1 °F 34.9 °F 37.9 °F 85% 30.50 in 9.0 mi East 13.8 mph 20.7 mph 0.01 in Rain Light Rain
11:52 AM 43.0 °F 38.2 °F 39.0 °F 86% 30.50 in 10.0 mi East 8.1 mph - 0.00 in   Overcast
12:28 PM 44.1 °F 36.8 °F 39.0 °F 82% 30.47 in 10.0 mi East 16.1 mph 20.7 mph N/A   Overcast
12:52 PM 44.1 °F 37.4 °F 39.0 °F 82% 30.48 in 10.0 mi East 13.8 mph 23.0 mph N/A   Overcast
1:52 PM 44.1 °F 38.6 °F 37.9 °F 79% 30.47 in 10.0 mi East 10.4 mph - N/A   Overcast
2:52 PM 44.1 °F 37.7 °F 37.9 °F 79% 30.45 in 10.0 mi East 12.7 mph - N/A   Overcast
3:35 PM 44.1 °F 37.4 °F 39.0 °F 82% 30.42 in 9.0 mi East 13.8 mph - N/A   Overcast
3:52 PM 44.1 °F 37.4 °F 39.0 °F 82% 30.43 in 9.0 mi East 13.8 mph 20.7 mph N/A   Overcast
4:44 PM 43.0 °F 36.8 °F 39.0 °F 86% 30.39 in 9.0 mi East 11.5 mph - N/A   Overcast
4:52 PM 43.0 °F 36.4 °F 39.0 °F 86% 30.40 in 9.0 mi East 12.7 mph - N/A   Overcast
5:02 PM 43.0 °F 36.8 °F 39.0 °F 86% 30.38 in 9.0 mi East 11.5 mph - N/A   Overcast
5:10 PM 43.0 °F 37.2 °F 39.0 °F 86% 30.38 in 9.0 mi East 10.4 mph - N/A   Overcast
5:52 PM 43.0 °F 36.0 °F 39.0 °F 86% 30.37 in 7.0 mi East 13.8 mph 18.4 mph 0.00 in Rain Light Rain
6:33 PM 43.0 °F 37.7 °F 39.9 °F 89% 30.36 in 5.0 mi East 9.2 mph - 0.00 in Rain Light Rain
6:40 PM 42.1 °F 36.1 °F 39.9 °F 92% 30.35 in 5.0 mi East 10.4 mph 18.4 mph 0.01 in Rain Light Rain
6:52 PM 42.1 °F 36.1 °F 39.9 °F 92% 30.36 in 5.0 mi East 10.4 mph - 0.01 in Rain Light Rain
7:52 PM 42.1 °F 36.6 °F 41.0 °F 96% 30.36 in 7.0 mi East 9.2 mph - 0.01 in Rain Light Rain
8:25 PM 42.1 °F 36.6 °F 41.0 °F 96% 30.35 in 5.0 mi East 9.2 mph - 0.01 in Rain Light Rain
8:44 PM 42.1 °F 36.1 °F 41.0 °F 96% 30.34 in 4.0 mi East 10.4 mph - 0.03 in Rain Light Rain
8:52 PM 42.1 °F 36.6 °F 41.0 °F 96% 30.35 in 5.0 mi East 9.2 mph - 0.04 in Rain Light Rain
9:39 PM 42.1 °F 36.1 °F 41.0 °F 96% 30.32 in 7.0 mi East 10.4 mph - 0.01 in Rain Light Rain
9:52 PM 43.0 °F 36.8 °F 41.0 °F 93% 30.31 in 7.0 mi ESE 11.5 mph - 0.02 in Rain Light Rain
10:13 PM 43.0 °F 36.4 °F 41.0 °F 93% 30.28 in 7.0 mi ESE 12.7 mph 18.4 mph 0.00 in Rain Light Rain
10:52 PM 43.0 °F 36.0 °F 42.1 °F 97% 30.27 in 7.0 mi ESE 13.8 mph 21.9 mph 0.01 in Rain Light Rain
11:15 PM 43.0 °F 36.4 °F 42.1 °F 97% 30.23 in 6.0 mi SE 12.7 mph 24.2 mph 0.00 in Rain Light Rain
11:52 PM 44.1 °F 37.4 °F 43.0 °F 96% 30.22 in 5.0 mi SE 13.8 mph 23.0 mph 0.02 in Rain Light Rain